Tracking 19794 objects as of 22-Jul-2019
HD Live streaming from Space Station
objects crossing your sky now

FLOCK 3P 40

Track FLOCK 3P 40 now!
10-day predictions
FLOCK 3P 40 is classified as:


NORAD ID: 42010
Int'l Code: 2017-008BQ
Perigee: 490.3 km
Apogee: 502.7 km
Inclination: 97.4 °
Period: 94.4 minutes
Semi major axis: 6867 km
RCS: Unknown
Launch date: February 15, 2017
Source: United States (US)
Launch site: SRIHARIKOTA (SRI)
aabbcc
Your satellite tracking list
Your tracking list is empty




NASA's NSSDC Master Catalog

Two Line Element Set (TLE):
1 42010U 17008BQ  19203.17557808  .00000987  00000-0  41815-4 0  9996
2 42010  97.4044 269.8838 0008963  56.0451 304.1638 15.25473029134302
Source of the keplerian elements: AFSPC